Weather History for Buffalo, NY

Change the Weather History Date:

Friday, August 9, 2013

  Actual Average Record
Temperature  
Mean Temperature 70 °F 70 °F  
Max Temperature 76 °F 79 °F 95 °F (1914)
Min Temperature 64 °F 62 °F 48 °F (1964)
Degree Days  
Heating Degree Days 0 0  
Month to date heating degree days 3 0  
Since 1 June heating degree days 73 73  
Since 1 July heating degree days 9 9  
Cooling Degree Days 5 6  
Month to date cooling degree days 38 54  
Year to date cooling degree days 448 380  
Since 1 June cooling degree days 377 354  
Growing Degree Days 20 (Base 50)    
Moisture  
Dew Point 63 °F    
Average Humidity 80    
Maximum Humidity 100    
Minimum Humidity 60    
Precipitation  
Precipitation 0.27 in 0.10 in 1.63 in (2009)
Month to date precipitation 1.81 0.98  
Year to date precipitation 25.93 22.88  
Snow  
Snow 0.00 in 0.00 in 0.00 in ()
Month to date snowfall 0.0 0.0  
Since 1 June snowfall 0.0 0.0  
Since 1 July snowfall 0.0 0.0  
Snow Depth 0.00 in    
Sea Level Pressure  
Sea Level Pressure 29.90 in    
Wind  
Wind Speed 9 mph (WNW)    
Max Wind Speed 18 mph    
Max Gust Speed 23 mph    
Visibility 8 miles    
Events Rain , Thunderstorm    
T = Trace of Precipitation, MM = Missing Value Source: NWS Daily Summary

Daily Weather History Graph

Daily Weather History Graph

Search for Another Location

Airport:

Trip Planner

Search our weather history database for the weather conditions in past years. The results will help you decide how hot, cold, wet, or windy it might be!

Date:

Astronomy

Aug. 09, 2013 Rise Set
Actual Time 6:14 AM EDT 8:25 PM EDT
Civil Twilight 5:43 AM EDT 8:56 PM EDT
Nautical Twilight 5:04 AM EDT 9:34 PM EDT
Astronomical Twilight 4:22 AM EDT 10:17 PM EDT
Moon 9:04 AM EDT (8/9) 9:27 PM EDT (8/9)
Length of Visible Light 15h 13m
Length of Day
14h 10m
Waxing Crescent, 7% of the Moon is Illuminated
Aug 9
Waxing Crescent
Aug 14
First Quarter
Aug 20
Full
Aug 28
Last Quarter
Sep 5
New

Hourly Weather History & Observations

Time (EDT) Temp. Dew Point Humidity Pressure Visibility Wind Dir Wind Speed Gust Speed Precip Events Conditions
12:17 AM 71.6 °F 69.8 °F 94% 29.93 in 10.0 mi WNW 6.9 mph - 0.13 in Rain , Thunderstorm Light Thunderstorms and Rain
12:30 AM 71.6 °F 69.8 °F 94% 29.92 in 9.0 mi North 5.8 mph - 0.13 in   Overcast
12:54 AM 71.1 °F 69.1 °F 93% 29.90 in 8.0 mi Calm Calm - 0.13 in   Overcast
1:36 AM 71.6 °F 69.8 °F 94% 29.90 in 7.0 mi North 4.6 mph - N/A   Overcast
1:54 AM 71.1 °F 69.1 °F 93% 29.89 in 6.0 mi North 4.6 mph - N/A   Overcast
2:54 AM 70.0 °F 69.1 °F 97% 29.88 in 4.0 mi North 6.9 mph - N/A   Overcast
3:54 AM 69.1 °F 68.0 °F 96% 29.88 in 4.0 mi NNW 5.8 mph - N/A   Overcast
4:54 AM 68.0 °F 66.0 °F 93% 29.88 in 9.0 mi NNW 6.9 mph - 0.00 in Rain Light Rain
5:23 AM 66.2 °F 64.4 °F 94% 29.88 in 7.0 mi North 8.1 mph - 0.01 in Rain Light Rain
5:54 AM 66.9 °F 64.9 °F 93% 29.87 in 7.0 mi North 6.9 mph - 0.03 in Rain Light Rain
6:48 AM 64.4 °F 64.4 °F 100% 29.89 in 3.0 mi NNW 9.2 mph - 0.13 in Rain , Thunderstorm Heavy Thunderstorms and Rain
6:54 AM 64.9 °F 63.0 °F 93% 29.88 in 3.0 mi North 9.2 mph - 0.15 in Rain , Thunderstorm Heavy Thunderstorms and Rain
7:26 AM 64.4 °F 62.6 °F 94% 29.89 in 3.0 mi NW 8.1 mph - 0.06 in Rain Rain
7:54 AM 64.0 °F 62.1 °F 93% 29.89 in 4.0 mi NNW 10.4 mph - 0.07 in Rain Rain
8:50 AM 64.4 °F 62.6 °F 94% 29.90 in 10.0 mi NNW 6.9 mph - 0.02 in   Overcast
8:54 AM 64.0 °F 63.0 °F 96% 29.89 in 10.0 mi NNW 6.9 mph - 0.02 in   Overcast
9:54 AM 64.9 °F 62.1 °F 90% 29.89 in 10.0 mi Calm Calm - 0.00 in   Overcast
10:54 AM 66.9 °F 63.0 °F 87% 29.90 in 10.0 mi WNW 4.6 mph - N/A   Overcast
11:05 AM 66.2 °F 62.6 °F 88% 29.91 in 10.0 mi WNW 5.8 mph - N/A   Overcast
11:54 AM 70.0 °F 62.1 °F 76% 29.90 in 10.0 mi NW 5.8 mph - N/A   Mostly Cloudy
12:54 PM 73.9 °F 63.0 °F 68% 29.89 in 10.0 mi West 8.1 mph - N/A   Mostly Cloudy
1:54 PM 75.0 °F 60.1 °F 60% 29.89 in 10.0 mi Variable 3.5 mph - N/A   Mostly Cloudy
2:54 PM 73.9 °F 63.0 °F 68% 29.89 in 10.0 mi SW 12.7 mph - N/A   Mostly Cloudy
3:54 PM 73.9 °F 62.1 °F 66% 29.90 in 10.0 mi WSW 13.8 mph - N/A   Mostly Cloudy
4:54 PM 73.9 °F 61.0 °F 64% 29.90 in 10.0 mi WSW 17.3 mph - N/A   Scattered Clouds
5:54 PM 72.0 °F 60.1 °F 66% 29.90 in 10.0 mi West 15.0 mph - N/A   Scattered Clouds
6:54 PM 71.1 °F 61.0 °F 70% 29.90 in 10.0 mi WSW 15.0 mph 20.7 mph N/A   Scattered Clouds
7:54 PM 70.0 °F 60.1 °F 71% 29.91 in 10.0 mi WSW 13.8 mph - N/A   Scattered Clouds
8:54 PM 70.0 °F 59.0 °F 68% 29.93 in 10.0 mi WSW 12.7 mph - N/A   Scattered Clouds
9:54 PM 70.0 °F 61.0 °F 73% 29.94 in 10.0 mi SW 9.2 mph - N/A   Scattered Clouds
10:54 PM 69.1 °F 60.1 °F 73% 29.94 in 10.0 mi West 9.2 mph - N/A   Scattered Clouds
11:54 PM 68.0 °F 57.0 °F 68% 29.95 in 10.0 mi SW 5.8 mph - N/A   Scattered Clouds